• In Uzbekistan
  • List of Countries
  • For 7 days
  • Water Temperature
  • Satellite Maps
  • Weather Map
  • Weather Widgets
  • user-avatar
    Login

    Hourly Weather Kalgoorlie

    Today, 20 August, Sunday

    Time Temperature Precipitation Wind Pressure Humidity
    00:00 +10°C° 0 mm 7 mps 729 mmHg 64%
    01:00 +9°C° 0 mm 7 mps 729 mmHg 68%
    02:00 +9°C° 0 mm 8 mps 729 mmHg 73%
    03:00 +9°C° 0 mm 8 mps 730 mmHg 75%
    04:00 +7°C° 0 mm 8 mps 730 mmHg 78%
    05:00 +7°C° 0 mm 9 mps 730 mmHg 81%
    06:00 +8°C° 0 mm 9 mps 730 mmHg 78%
    07:00 +10°C° 0 mm 9 mps 731 mmHg 75%
    08:00 +11°C° 0 mm 10 mps 731 mmHg 72%
    09:00 +12°C° 0 mm 10 mps 731 mmHg 67%
    10:00 +13°C° 0 mm 10 mps 732 mmHg 62%
    11:00 +14°C° 0 mm 10 mps 732 mmHg 57%
    12:00 +15°C° 0 mm 9 mps 732 mmHg 55%
    13:00 +16°C° 0 mm 9 mps 732 mmHg 53%
    14:00 +16°C° 0 mm 9 mps 732 mmHg 51%
    15:00 +16°C° 0 mm 8 mps 732 mmHg 52%
    16:00 +16°C° 0 mm 7 mps 732 mmHg 52%
    17:00 +15°C° 0 mm 6 mps 732 mmHg 53%
    18:00 +14°C° 0 mm 5 mps 733 mmHg 58%
    19:00 +13°C° 0 mm 4 mps 733 mmHg 63%
    20:00 +12°C° 0 mm 3 mps 733 mmHg 68%
    21:00 +11°C° 0 mm 3 mps 734 mmHg 72%
    22:00 +11°C° 0 mm 3 mps 734 mmHg 75%
    23:00 +10°C° 0 mm 2 mps 734 mmHg 78%

    Tomorrow, 21 August, Monday

    Time Temperature Precipitation Wind Pressure Humidity
    00:00 +10°C° 0 mm 2 mps 734 mmHg 81%
    01:00 +9°C° 0 mm 2 mps 734 mmHg 84%
    02:00 +10°C° 0 mm 1 mps 734 mmHg 87%
    03:00 +9°C° 0 mm 1 mps 734 mmHg 88%
    04:00 +9°C° 0 mm 1 mps 733 mmHg 89%
    05:00 +9°C° 0 mm 1 mps 733 mmHg 91%
    06:00 +10°C° 0 mm 1 mps 734 mmHg 87%
    07:00 +10°C° 0 mm 1 mps 734 mmHg 82%
    08:00 +11°C° 0 mm 1 mps 734 mmHg 78%
    09:00 +13°C° 0 mm 1 mps 734 mmHg 72%
    10:00 +14°C° 0 mm 2 mps 734 mmHg 65%
    11:00 +15°C° 0 mm 2 mps 734 mmHg 58%
    12:00 +16°C° 0 mm 2 mps 733 mmHg 53%
    13:00 +18°C° 0 mm 2 mps 733 mmHg 47%
    14:00 +19°C° 0 mm 2 mps 732 mmHg 41%
    15:00 +19°C° 0 mm 2 mps 732 mmHg 40%
    16:00 +19°C° 0 mm 2 mps 732 mmHg 39%
    17:00 +19°C° 0 mm 2 mps 732 mmHg 38%
    18:00 +18°C° 0 mm 2 mps 732 mmHg 41%
    19:00 +17°C° 0 mm 2 mps 732 mmHg 43%
    20:00 +16°C° 0 mm 2 mps 732 mmHg 46%
    21:00 +15°C° 0 mm 2 mps 732 mmHg 46%
    22:00 +15°C° 0 mm 2 mps 732 mmHg 46%
    23:00 +14°C° 0 mm 2 mps 732 mmHg 47%

    Day after tomorrow, 22 August, Tuesday

    Time Temperature Precipitation Wind Pressure Humidity
    00:00 +13°C° 0 mm 3 mps 732 mmHg 47%
    01:00 +13°C° 0 mm 3 mps 732 mmHg 47%
    02:00 +12°C° 0 mm 3 mps 731 mmHg 48%
    03:00 +12°C° 0 mm 3 mps 731 mmHg 49%
    04:00 +11°C° 0 mm 3 mps 731 mmHg 50%
    05:00 +12°C° 0 mm 2 mps 731 mmHg 52%
    06:00 +12°C° 0 mm 3 mps 731 mmHg 50%
    07:00 +13°C° 0 mm 3 mps 732 mmHg 48%
    08:00 +14°C° 0 mm 3 mps 732 mmHg 46%
    09:00 +17°C° 0 mm 3 mps 732 mmHg 41%
    10:00 +19°C° 0 mm 3 mps 732 mmHg 36%
    11:00 +21°C° 0 mm 4 mps 732 mmHg 31%
    12:00 +21°C° 0 mm 3 mps 732 mmHg 29%
    13:00 +22°C° 0 mm 3 mps 731 mmHg 27%
    14:00 +24°C° 0 mm 3 mps 731 mmHg 24%
    15:00 +24°C° 0 mm 2 mps 731 mmHg 26%
    16:00 +23°C° 0 mm 2 mps 731 mmHg 28%
    17:00 +23°C° 0 mm 2 mps 731 mmHg 30%
    18:00 +21°C° 0 mm 2 mps 732 mmHg 32%
    19:00 +19°C° 0 mm 3 mps 732 mmHg 34%
    20:00 +18°C° 0 mm 4 mps 733 mmHg 36%
    21:00 +16°C° 0 mm 5 mps 733 mmHg 40%
    22:00 +15°C° 0 mm 6 mps 733 mmHg 43%
    23:00 +15°C° 0 mm 6 mps 733 mmHg 46%

    23 August, Wednesday

    Time Temperature Precipitation Wind Pressure Humidity
    00:00 +14°C° 0 mm 6 mps 733 mmHg 52%
    01:00 +13°C° 0 mm 6 mps 733 mmHg 57%
    02:00 +11°C° 0 mm 7 mps 733 mmHg 63%
    03:00 +11°C° 0 mm 7 mps 733 mmHg 67%
    04:00 +10°C° 0 mm 7 mps 734 mmHg 72%
    05:00 +9°C° 0 mm 7 mps 734 mmHg 77%
    06:00 +10°C° 0 mm 7 mps 734 mmHg 74%
    07:00 +10°C° 0 mm 8 mps 735 mmHg 72%
    08:00 +11°C° 0 mm 8 mps 735 mmHg 69%
    09:00 +13°C° 0 mm 8 mps 735 mmHg 62%
    10:00 +15°C° 0 mm 8 mps 735 mmHg 55%
    11:00 +17°C° 0 mm 8 mps 735 mmHg 48%
    12:00 +18°C° 0 mm 8 mps 735 mmHg 45%
    13:00 +20°C° 0 mm 8 mps 734 mmHg 43%
    14:00 +21°C° 0 mm 7 mps 734 mmHg 40%
    15:00 +21°C° 0 mm 7 mps 734 mmHg 42%
    16:00 +20°C° 0 mm 7 mps 734 mmHg 44%
    17:00 +20°C° 0 mm 7 mps 734 mmHg 46%
    18:00 +18°C° 0 mm 7 mps 735 mmHg 52%
    19:00 +16°C° 0 mm 8 mps 735 mmHg 57%
    20:00 +15°C° 0 mm 8 mps 736 mmHg 63%
    21:00 +14°C° 0 mm 7 mps 736 mmHg 67%
    22:00 +12°C° 0 mm 7 mps 736 mmHg 70%
    23:00 +11°C° 0 mm 7 mps 736 mmHg 74%

    24 August, Thursday

    Time Temperature Precipitation Wind Pressure Humidity
    00:00 +11°C° 0 mm 7 mps 736 mmHg 75%
    01:00 +10°C° 0 mm 6 mps 736 mmHg 76%
    02:00 +10°C° 0 mm 6 mps 736 mmHg 78%
    03:00 +9°C° 0 mm 6 mps 736 mmHg 79%
    04:00 +9°C° 0 mm 6 mps 736 mmHg 79%
    05:00 +8°C° 0 mm 5 mps 736 mmHg 80%
    06:00 +9°C° 0 mm 6 mps 736 mmHg 79%
    07:00 +9°C° 0 mm 6 mps 737 mmHg 77%
    08:00 +9°C° 0 mm 7 mps 737 mmHg 75%
    09:00 +11°C° 0 mm 7 mps 737 mmHg 68%
    10:00 +14°C° 0 mm 7 mps 737 mmHg 61%
    11:00 +16°C° 0 mm 7 mps 736 mmHg 53%
    12:00 +17°C° 0 mm 6 mps 736 mmHg 49%
    13:00 +19°C° 0 mm 6 mps 735 mmHg 46%
    14:00 +20°C° 0 mm 6 mps 735 mmHg 42%
    15:00 +20°C° 0 mm 6 mps 735 mmHg 43%
    16:00 +20°C° 0 mm 5 mps 735 mmHg 44%
    17:00 +19°C° 0 mm 5 mps 735 mmHg 45%
    18:00 +19°C° 0 mm 5 mps 735 mmHg 48%
    19:00 +17°C° 0 mm 5 mps 736 mmHg 52%
    20:00 +16°C° 0 mm 5 mps 736 mmHg 55%
    21:00 +15°C° 0 mm 5 mps 736 mmHg 57%
    22:00 +15°C° 0 mm 6 mps 737 mmHg 58%
    23:00 +15°C° 0 mm 6 mps 737 mmHg 60%

    25 August, Friday

    Time Temperature Precipitation Wind Pressure Humidity
    00:00 +14°C° 0 mm 6 mps 737 mmHg 65%
    01:00 +13°C° 0 mm 6 mps 737 mmHg 70%
    02:00 +11°C° 0 mm 6 mps 737 mmHg 75%
    03:00 +10°C° 0 mm 7 mps 737 mmHg 77%
    04:00 +9°C° 0 mm 7 mps 737 mmHg 79%
    05:00 +8°C° 0 mm 7 mps 737 mmHg 81%
    06:00 +9°C° 0 mm 7 mps 737 mmHg 79%
    07:00 +9°C° 0 mm 7 mps 738 mmHg 77%
    08:00 +9°C° 0 mm 8 mps 738 mmHg 74%
    09:00 +11°C° 0 mm 8 mps 738 mmHg 69%
    10:00 +12°C° 0 mm 7 mps 738 mmHg 64%
    11:00 +14°C° 0 mm 7 mps 738 mmHg 59%
    12:00 +15°C° 0 mm 7 mps 738 mmHg 54%
    13:00 +16°C° 0 mm 7 mps 737 mmHg 50%
    14:00 +17°C° 0 mm 7 mps 736 mmHg 45%
    15:00 +17°C° 0 mm 7 mps 736 mmHg 45%
    16:00 +17°C° 0 mm 8 mps 737 mmHg 45%
    17:00 +16°C° 0 mm 8 mps 737 mmHg 45%
    18:00 +16°C° 0 mm 7 mps 737 mmHg 47%
    19:00 +15°C° 0 mm 7 mps 737 mmHg 48%
    20:00 +14°C° 0 mm 6 mps 738 mmHg 50%
    21:00 +13°C° 0 mm 6 mps 738 mmHg 53%
    22:00 +13°C° 0 mm 6 mps 738 mmHg 56%
    23:00 +11°C° 0 mm 6 mps 738 mmHg 60%
    Show more